Location: *
(34.8620°S, 39.3380°E)
Time: 23:06:26
(UTC+00:00)

YAOGAN 1 - Pass Details

Date: 01 December 2021
Orbit: 618 x 620 km, 97.9° (Epoch: 22 January)

Event Time Altitude Azimuth Distance (km) Brightness Sun altitude
Rises 17:53:16 0° 184° (S) 2,928 6.8 -16.2°
Reaches altitude 10° 17:55:51 10° 199° (SSW) 2,013 6.1 -16.6°
Maximum altitude 17:59:12 22° 249° (WSW) 1,378 5.1 -17.1°
Drops below altitude 10° 18:02:32 10° 300° (WNW) 1,993 5.4 -17.6°
Sets 18:05:06 0° 315° (NW) 2,891 6.0 -18.0°
